Regional Weather Roundup
Issued by NWS

Home | Current Version | Previous Version | Graphics & Text | Print | Product List | Glossary On
Versions: 1 2 3 4 5 6 7 8 9 10 11 12 13 14 15 16 17 18 19 20 21 22 23 24 25 26 27 28 29 30 31 32 33 34 35 36 37 38 39 40 41 42 43 44 45 46 47 48 49 50
000
ASUS43 KBIS 241410
RWRND

NORTH DAKOTA REGIONAL WEATHER ROUNDUP
NATIONAL WEATHER SERVICE BISMARCK ND
900 AM CDT MON APR 24 2017

NOTE: "FAIR" INDICATES FEW OR NO CLOUDS BELOW 12,000 FEET WITH NO
SIGNIFICANT WEATHER AND/OR OBSTRUCTIONS TO VISIBILITY.


NDZ001>003-009>011-017-241500-
NORTHWEST NORTH DAKOTA

CITY           SKY/WX    TMP DP  RH WIND       PRES   REMARKS
WILLISTON      FLURRIES  31  28  89 NE9       29.73S
MINOT          FLURRIES  31  26  82 NE9       29.72F
MINOT AFB      MIX PCPN  30  25  83 NE12      29.72F
$$

NDZ018>021-031>035-040>046-241500-
SOUTHWEST NORTH DAKOTA

CITY           SKY/WX    TMP DP  RH WIND       PRES   REMARKS
BISMARCK       CLOUDY    34  32  92 NE9       29.66F
DICKINSON      CLOUDY    29  28  96 N6        29.64F FOG
GARRISON         N/A     30  28  92 E10       29.68F
HETTINGER ARPT CLOUDY    32  30  92 NW14      29.66R
$$

NDZ004>008-012>016-024-026-027-054-241500-
NORTHEAST NORTH DAKOTA

CITY           SKY/WX    TMP DP  RH WIND       PRES   REMARKS
GRAND FORKS    LGT RAIN  36  33  89 E14       29.71F
GRND FRKS AFB  LGT RAIN  34  32  92 E12       29.70F
DEVILS LAKE    FLURRIES  31  29  92 NE20G25   29.69  WCI  19
$$

NDZ022-023-025-028>030-036>039-047>053-241500-
SOUTHEAST NORTH DAKOTA

CITY           SKY/WX    TMP DP  RH WIND       PRES   REMARKS
FARGO          CLOUDY    40  33  76 NE10G21   29.62F
JAMESTOWN      MIX PCPN  34  32  92 NE12      29.63R
$$




USA.gov is the U.S. government's official web portal to all federal, state and local government web resources and services.